YMML

Melbourne Airport

Airport
ICAO code
YMML
IATA Code
MEL
Summary
ICAO Region
APAC
ICAO Territory
Location

Tullamarine, Victoria

Serving
Melbourne
Elevation
434 ft
Coordinates
37° 40' 11" S , 144° 50' 55" E
KCC
Airport BS
Bird Strike
Airport WX
Cumulonimbus
Metar
YMML 300900Z AUTO 36013KT 9999 -RA OVC084 15/14 Q1008 RF00.4/003.2

Description

Melbourne Airport, also known as Tullamarine Airport, is the primary airport serving the city of Melbourne and the second busiest in Australia.

Climatology

Mild temperate oceanic climate (Köppen climate classification Cfb). Melbourne is known for its changeable weather conditions caused by the city's location on the boundary of the very hot inland areas and the cold southern ocean. Cold fronts in the spring and summer months can be associated with severe weather.

SKYbrary Partners:

Safety knowledge contributed by: